RH
2 3 4 5 9 16 26 36 41 41 34 22 13 7 6 5 4 3 3 3 2 2 3 5 5 5 4 4 4 2 2 2
3 4 6 11 23 32 36 37 27 16 10 8 6 6 5 4 3 3 3 2 2 3 4 6 4 3 3 2 2 2 1 1
3 6 14 28 36 33 20 12 8 7 7 7 6 4 4 3 3 3 2 2 2 3 4 6 4 3 2 2 2 2 1 1
7 12 27 38 35 21 12 8 7 6 5 4 4 3 3 3 3 3 3 3 3 4 5 6 6 3 2 2 2 2 2 2
10 31 42 39 25 14 8 7 5 4 5 4 4 3 3 3 3 3 3 3 4 5 6 6 7 6 4 2 2 2 2 2
18 41 43 26 11 6 6 5 5 5 4 4 3 4 4 4 4 3 3 3 4 5 6 6 6 6 6 4 3 3 3 3
39 48 27 10 6 5 5 6 6 5 4 4 4 4 4 4 4 3 3 3 3 4 4 5 4 3 3 4 3 3 3 3
54 39 16 6 4 5 6 7 6 5 5 5 4 4 4 4 4 3 3 3 3 3 3 3 3 3 3 3 3 3 3 3
59 22 7 5 5 7 8 7 6 5 5 5 5 5 5 5 4 4 4 5 7 7 8 6 5 4 3 3 3 2 2 2
30 8 5 5 7 9 8 6 6 6 6 6 6 7 6 6 11 17 16 12 9 8 7 6 6 5 4 4 4 3 3 3
10 5 5 7 10 8 8 7 6 7 7 8 8 8 15 24 20 12 11 11 11 9 8 8 8 7 7 6 6 5 5 4
5 5 7 10 9 9 7 6 7 9 10 9 10 25 22 13 14 16 12 9 9 8 7 6 5 5 5 6 6 6 5 5
5 7 11 10 10 8 7 9 11 11 10 18 28 18 15 18 13 9 9 8 7 7 8 10 11 12 11 10 10 10 11 13
7 11 12 11 9 8 11 13 13 13 27 28 18 19 16 10 10 8 7 8 9 9 10 11 10 10 9 9 8 8 9 10
12 13 12 10 8 12 14 14 14 31 28 20 20 12 10 10 8 8 10 11 12 12 11 9 9 11 13 14 13 21 22 29
14 13 11 9 13 15 14 17 36 31 23 20 10 11 11 10 12 13 13 13 10 9 13 24 32 34 42 48 40 42 47 51
14 11 9 13 16 16 21 38 34 25 20 11 11 12 14 16 16 16 12 12 18 30 43 50 51 47 45 42 42 42 40 38
12 9 14 16 16 25 39 38 30 21 12 12 14 16 18 18 13 14 20 31 45 58 61 72 85 90 88 70 94 79 78 65
9 14 16 18 29 40 40 30 20 12 13 14 17 19 17 13 19 33 46 69 84 94 98 92 93 98 100 98 84 78 54 66
15 16 19 33 42 39 32 19 14 14 15 17 19 16 14 23 38 62 77 93 95 100 100 100 100 100 99 78 90 94 98 58
Wind_Speed
44 45 43 41 38 37 36 36 37 36 37 37 38 38 38 38 38 37 37 37 37 37 38 38 39 39 39 38 36 35 34 34
43 42 41 39 37 36 36 36 36 37 37 38 38 38 39 39 39 40 39 39 39 39 40 40 40 40 40 39 38 37 35 35
43 42 39 38 37 36 36 36 36 37 38 37 38 38 38 40 40 41 41 41 42 42 43 43 42 43 41 40 41 39 37 37
42 40 39 38 38 38 37 37 37 38 38 38 39 40 41 43 42 42 42 42 43 43 44 46 46 45 44 44 45 44 42 40
40 38 38 38 38 38 38 38 38 38 38 41 42 43 43 43 43 43 43 44 46 46 47 47 48 48 47 47 47 48 48 46
39 38 38 38 37 36 36 37 38 38 40 41 43 44 45 46 46 46 46 47 47 48 48 49 49 51 50 50 49 50 51 50
39 38 38 36 35 35 36 37 38 40 41 43 44 45 46 46 47 48 48 47 48 50 51 53 53 52 53 54 55 53 53 53
38 37 36 35 35 36 37 38 40 41 43 45 46 46 46 47 47 47 48 49 52 53 53 54 54 55 56 56 57 58 59 60
37 36 35 35 36 37 38 39 41 43 45 46 47 48 48 48 48 47 47 49 50 52 53 54 54 55 56 57 58 58 57 56
36 34 35 35 37 37 39 41 43 45 47 48 49 48 46 45 44 44 46 48 50 51 52 53 54 54 54 56 56 56 57 57
32 33 34 36 36 38 40 43 45 47 48 49 47 45 43 43 44 45 46 49 51 52 54 55 56 57 58 59 60 61 62 64
30 32 34 36 37 40 42 44 46 48 47 45 43 42 43 45 46 48 50 51 54 56 58 60 61 60 60 60 62 63 64 65
29 31 34 36 38 41 44 46 48 47 44 42 42 44 45 48 50 51 54 56 57 57 57 56 56 57 56 56 55 56 55 55
28 32 34 37 40 42 44 46 46 43 42 42 44 46 48 50 52 54 54 55 56 57 57 57 56 54 51 49 47 48 51 53
29 32 34 38 40 43 44 44 41 42 43 45 47 48 51 53 53 54 55 56 57 57 54 49 44 44 43 40 40 44 44 42
30 32 35 37 41 43 41 40 40 42 44 46 48 51 53 54 54 56 57 56 51 44 40 39 35 35 37 37 38 41 43 45
29 32 35 39 40 39 39 39 42 44 45 47 50 52 53 53 55 56 48 41 39 36 37 40 42 41 40 38 36 38 43 44
29 33 37 38 37 36 38 41 42 44 45 48 51 51 52 54 50 40 38 36 39 39 36 32 33 34 34 34 34 34 37 37
30 35 35 35 35 37 40 41 42 43 46 49 49 51 53 42 37 35 38 36 30 33 35 33 32 30 29 32 32 31 32 36
32 32 32 34 36 39 40 40 41 44 46 49 50 50 38 34 35 35 30 33 34 35 35 37 34 28 28 25 26 33 37 33
Wind_Direction
306 306 306 306 305 304 300 297 294 293 293 292 292 290 289 288 288 285 283 280 275 270 269 268 268 268 269 268 263 261 260 258
307 306 305 305 303 300 297 296 295 293 291 291 292 291 292 291 289 286 283 279 274 271 268 266 266 265 265 267 264 262 259 255
307 307 306 305 302 299 297 294 292 290 292 293 293 291 290 288 286 283 280 276 273 271 269 266 267 265 265 265 265 261 257 252
306 305 305 303 300 298 296 296 296 297 298 296 295 294 292 289 287 284 279 275 272 272 270 268 267 267 264 263 262 260 256 251
305 305 303 299 297 296 297 299 300 299 298 298 297 295 293 291 287 282 277 274 274 275 275 273 270 269 268 265 261 258 255 253
305 303 299 296 296 298 299 299 297 296 296 297 296 296 295 292 288 282 277 275 275 277 277 276 274 272 268 265 261 258 255 253
304 300 298 298 299 299 299 298 299 299 299 298 298 298 296 292 288 283 280 278 278 278 278 277 274 272 269 266 263 261 257 254
301 299 299 299 299 299 299 299 300 300 300 299 300 301 298 294 290 286 284 281 279 280 281 280 277 274 271 267 264 261 259 258
300 299 299 298 299 299 300 302 302 302 301 303 303 302 297 291 287 284 283 282 283 284 283 281 278 275 271 267 265 263 260 257
299 298 297 299 299 301 304 304 304 304 304 305 303 298 295 293 292 290 289 289 289 287 284 282 280 277 274 271 269 267 265 261
297 297 297 298 301 304 306 306 305 306 306 303 300 300 299 298 296 295 294 292 290 289 287 284 282 279 276 273 271 267 264 262
296 297 298 301 306 307 306 304 306 306 304 302 303 302 302 300 299 298 297 295 294 292 290 286 282 278 274 271 267 263 259 255
295 300 302 306 309 308 308 308 309 307 306 307 307 306 304 303 303 303 300 298 296 295 293 289 285 281 276 272 268 263 258 253
301 303 307 309 309 308 308 310 308 309 309 308 308 308 308 307 305 303 301 300 298 296 292 289 285 281 276 269 262 256 249 248
304 307 309 309 309 310 310 310 311 313 313 313 313 312 311 308 305 305 304 303 301 298 294 289 282 278 273 266 256 252 251 246
307 310 311 310 310 311 313 316 317 316 316 317 316 314 311 311 311 309 308 306 302 298 293 290 285 277 273 267 258 251 247 244
310 313 312 312 314 315 320 320 320 320 320 320 318 317 318 316 315 313 311 307 304 302 297 292 287 280 274 268 261 255 250 246
315 314 315 317 319 323 324 323 323 324 323 322 322 323 322 321 319 318 317 314 309 302 296 291 284 279 268 260 254 247 243 238
317 319 320 322 326 327 326 326 326 325 326 326 327 327 328 327 326 325 318 315 312 311 302 293 284 281 274 262 256 244 238 240
323 321 326 329 331 330 330 330 328 330 329 330 331 334 335 334 330 327 328 323 324 318 312 301 288 273 280 269 250 249 240 224